Main page
METAR-TAF:

METAR-TAF

Airports :

South Big Horn County Airport

Greybull, Wyoming, United States

latitude: 44-30-57N, longitude: 108-04-33W, elevation: 3933 ft

Current weather observation

The report was made 53 minutes ago, at 18:53 UTC
Wind 5 mph from variable directions
Temperature 39°F
Humidity 52%
Pressure 29.55 in. Hg
Visibility: 10 miles
Clear sky

METAR: KGEY 011853Z AUTO VRB04KT 10SM CLR 04/M05 A2955 RMK AO2 SLP044 T00441050

Time: 12:46 (19:46 UTC)


TAF: missing

Weather observations and forecasts of more than 4000 airports (METAR and TAF reports).

The available stations are represented by yellow and red dots on the map.

Hover mouse over dot to see the name of the station.

Then click to see weather observations and forecasts.

To change the map : click on the green buttons with a black cross to zoom in, on the green button with a dash to zoom out, or on the green arrows for adjacent maps.


METAR-TAF: